[[{"header":{"parameterUnit":"m.s-1","parameterCategory":1,"la1":30.2991,"la2":30.254,"lo1":-89.0895,"lo2":-89.0444,"dy":0.0017,"dx":0.0017,"nx":28,"ny":28,"refTime":"2024-03-20T21:00:00:Z","depth":0,"parameterNumber":2,"parameterNumberName":"U-component_of_WINDS"},"data":[0,0,0,0,0,0,0,0,0,0,0,0,0,0,0,0,0,0,0,0,0,0,0,0,0,0,0,0,0,0,0,0,0,0,0,0,0,0,0,0,0,0,0,0,0,0,0,0,0,0,0,0,0,0,0,0,0,0,1.4418,1.4419,0,1.451,1.4511,1.4513,1.4531,1.453,1.453,1.4529,1.4622,1.4625,1.4628,0,0,0,0,0,0,0,0,0,0,0,0,0,1.4256,1.4259,1.4418,1.4419,1.4421,1.451,1.4512,1.4513,1.4531,1.453,1.453,1.4529,1.4621,1.4625,1.4628,0,0,0,0,0,0,0,0,0,0,0,0,0,1.4335,1.426,1.4418,1.4441,1.4444,1.451,1.4512,1.4513,1.4531,1.453,1.4529,1.4528,1.462,1.4624,1.4629,1.4679,0,0,1.4643,1.4645,0,0,0,0,0,0,0,0,1.4331,1.4341,1.4436,1.4439,1.4443,1.4508,1.4489,1.4569,1.4532,1.4498,1.4529,1.4528,1.4585,1.4592,1.4612,1.4683,1.4687,1.4644,1.4647,1.4649,1.465,0,0,0,0,0,0,0,1.4325,1.4337,1.4455,1.4438,1.4442,1.4446,1.4456,1.4504,1.4546,1.4501,1.4503,1.4513,1.4586,1.4607,1.4614,1.4689,1.4644,1.4648,1.4651,1.4652,1.4804,1.4805,0,0,0,0,0,0,1.4316,1.4333,1.4452,1.4457,1.4383,1.4449,1.4461,1.4488,1.4546,1.4554,1.4514,1.4514,1.46,1.4609,1.4618,1.4678,1.4648,1.4653,1.4656,1.4803,1.4804,1.4805,0,0,0,0,0,0,1.4313,1.4327,1.4448,1.4396,1.4411,1.4453,1.4484,1.4491,1.4512,1.4556,1.4563,1.4528,1.4599,1.4611,1.4663,1.4682,1.4655,1.4659,1.4801,1.4803,1.4805,1.4801,0,0,0,0,0,0,1.4308,1.4325,1.4345,1.4396,1.4414,1.4493,1.4485,1.4493,1.452,1.452,1.457,1.4578,1.4599,1.4656,1.4668,1.4688,1.4663,1.48,1.4802,1.4804,1.48,1.4803,1.4805,0,0,0,0,0,1.4302,1.4341,1.4346,1.436,1.444,1.4494,1.4504,1.4529,1.4521,1.4541,1.4569,1.4576,1.4678,1.4661,1.4675,1.4696,1.4798,1.4801,1.4804,1.4799,1.4802,1.4805,0,0,0,0,0,0,1.429,1.4348,1.4354,1.4411,1.4447,1.4497,1.4523,1.4532,1.4571,1.457,1.4598,1.4609,1.4659,1.4684,1.4664,1.4747,1.4738,1.4743,1.4729,1.4733,1.4736,1.4728,1.4667,0,0,0,0,0,1.4295,1.4334,1.4382,1.4427,1.4445,1.448,1.4505,1.4521,1.456,1.4575,1.4607,1.4644,1.4684,1.471,1.475,1.4804,1.4814,1.4825,1.4828,1.483,1.4834,1.4863,1.4868,1.4814,1.4814,1.4814,0,0,1.4303,1.4339,1.4362,1.4425,1.4455,1.4495,1.4493,1.4535,1.4564,1.4581,1.4632,1.4657,1.47,1.4753,1.4778,1.4774,1.4851,1.4833,1.4835,1.4838,1.4866,1.4871,1.4875,1.4816,1.4816,1.4815,0,0,1.4338,1.4371,1.4411,1.4441,1.4487,1.451,1.452,1.4568,1.4585,1.4637,1.465,1.4685,1.4754,1.4784,1.4808,1.4854,1.4861,1.4866,1.488,1.4907,1.4911,1.4915,1.493,1.4935,1.4871,1.4871,1.4871,0,1.4343,1.4404,1.443,1.4471,1.4498,1.4515,1.4555,1.4584,1.464,1.4657,1.4653,1.4739,1.477,1.4829,1.484,1.486,1.487,1.486,1.4909,1.4913,1.4917,1.4931,1.4937,1.4871,1.4871,1.4871,1.4871,0,1.4406,1.4448,1.4475,1.4528,1.4558,1.4599,1.4631,1.4658,1.4671,1.4694,1.4746,1.4783,1.483,1.4845,1.4859,1.4906,1.4902,1.4903,1.4894,1.4922,1.4936,1.4941,1.4871,1.4871,1.4871,1.4871,0,0,1.4436,1.4504,1.4513,1.4537,1.4589,1.4621,1.4662,1.4708,1.473,1.4768,1.4802,1.486,1.4861,1.4888,1.4905,1.493,1.4962,1.4927,1.4929,1.4931,1.5014,1.5012,1.5018,1.4967,1.4969,1.497,1.501,0,1.4476,1.455,1.4575,1.4636,1.4674,1.4691,1.4726,1.4761,1.4784,1.4819,1.4845,1.4885,1.4884,1.49,1.4925,1.4952,1.4978,1.495,1.4998,1.4999,1.4985,1.5026,1.5024,1.5061,1.5016,1.5017,1.5018,0,1.4533,1.4572,1.4636,1.4682,1.4699,1.4731,1.4774,1.4808,1.4848,1.4863,1.4893,1.4908,1.495,1.494,1.4998,1.4978,1.4999,1.5015,1.5018,1.5022,1.5009,1.5029,1.5073,1.5078,1.5027,1.5026,1.5025,0,1.4546,1.4615,1.4662,1.4682,1.4738,1.4759,1.4783,1.4822,1.4847,1.4885,1.4902,1.4945,1.4967,1.5,1.5025,1.5016,1.508,1.5073,1.5093,1.5092,1.5104,1.5103,1.515,1.5121,1.5121,1.512,1.512,0,1.4587,1.4626,1.4668,1.4697,1.474,1.4768,1.481,1.4835,1.4869,1.4902,1.492,1.4951,1.4983,1.5018,1.5039,1.5082,1.5093,1.5106,1.511,1.5103,1.5101,1.5116,1.5114,1.5122,1.5122,1.5121,1.5121,0,1.4609,1.4639,1.4691,1.4739,1.4752,1.4782,1.4822,1.485,1.4875,1.4916,1.4928,1.4965,1.5007,1.5036,1.509,1.5103,1.515,1.5155,1.5136,1.5138,1.5156,1.5154,1.5214,1.5222,1.5188,1.5189,1.5189,0,1.4632,1.4662,1.4713,1.4737,1.4761,1.4799,1.4825,1.4854,1.488,1.4927,1.495,1.4993,1.5028,1.5094,1.5125,1.5166,1.5172,1.519,1.5178,1.5169,1.517,1.5167,1.517,1.5191,1.5191,1.5191,1.5192,0,1.467,1.4684,1.4721,1.4764,1.4795,1.4829,1.4864,1.4883,1.4917,1.4946,1.4989,1.5017,1.5071,1.5113,1.5157,1.5181,1.5191,1.5195,1.5202,1.5194,1.5181,1.5187,1.514,1.5194,1.5193,1.5193,1.5193,1.5193,1.4692,1.4719,1.4759,1.48,1.4829,1.4861,1.489,1.4917,1.4954,1.5,1.5015,1.5059,1.5097,1.5157,1.5182,1.5216,1.5215,1.5225,1.5227,1.5229,1.5228,1.5177,1.5225,1.5225,1.5225,1.5225,1.5225,0,1.473,1.4756,1.4794,1.4842,1.4874,1.4882,1.4921,1.4947,1.4985,1.502,1.5055,1.5104,1.5145,1.5179,1.5221,1.5242,1.5248,1.5252,1.525,1.5255,1.5227,1.5217,1.5246,1.5246,1.5246,1.5246,1.5246,1.5246,1.4753,1.4798,1.4816,1.4876,1.4902,1.4946,1.4967,1.4996,1.5024,1.5078,1.5112,1.5134,1.5169,1.5213,1.5251,1.526,1.5273,1.5276,1.5286,1.5259,1.5257,1.5254,1.5244,1.5279,1.5279,1.5311,1.5311,1.5311]},{"header":{"parameterUnit":"m.s-1","parameterCategory":1,"la1":30.2991,"la2":30.254,"lo1":-89.0895,"lo2":-89.0444,"dy":0.0017,"dx":0.0017,"nx":28,"ny":28,"refTime":"2024-03-20T21:00:00:Z","depth":0,"parameterNumber":3,"parameterNumberName":"V-component_of_WINDS"},"data":[0,0,0,0,0,0,0,0,0,0,0,0,0,0,0,0,0,0,0,0,0,0,0,0,0,0,0,0,0,0,0,0,0,0,0,0,0,0,0,0,0,0,0,0,0,0,0,0,0,0,0,0,0,0,0,0,0,0,2.9588,2.9588,0,2.9601,2.9601,2.9601,2.9558,2.9557,2.9556,2.9554,2.9566,2.9568,2.9569,0,0,0,0,0,0,0,0,0,0,0,0,0,2.9524,2.9526,2.9588,2.9588,2.9589,2.9601,2.9601,2.9601,2.9558,2.9557,2.9555,2.9554,2.9566,2.9568,2.957,0,0,0,0,0,0,0,0,0,0,0,0,0,2.9546,2.9526,2.9588,2.9569,2.9567,2.9601,2.9601,2.9601,2.9559,2.9557,2.9555,2.9553,2.9565,2.9568,2.957,2.9623,0,0,2.9577,2.9578,0,0,0,0,0,0,0,0,2.9545,2.9549,2.9571,2.957,2.9568,2.9576,2.9583,2.9609,2.9559,2.9562,2.9554,2.9552,2.9571,2.9573,2.9579,2.9623,2.9624,2.9577,2.9578,2.9579,2.958,0,0,0,0,0,0,0,2.9544,2.9548,2.9593,2.9572,2.957,2.9558,2.9559,2.9588,2.9577,2.9562,2.9558,2.9561,2.957,2.9577,2.9579,2.9624,2.9577,2.9579,2.958,2.9581,2.971,2.9712,0,0,0,0,0,0,2.9545,2.9547,2.9593,2.9594,2.9552,2.9561,2.9562,2.9576,2.9577,2.9575,2.9562,2.9559,2.9574,2.9577,2.958,2.964,2.9579,2.9582,2.9583,2.9708,2.971,2.9713,0,0,0,0,0,0,2.9544,2.9549,2.9592,2.9569,2.9574,2.9564,2.958,2.9577,2.9584,2.9577,2.9575,2.9572,2.9573,2.9576,2.9612,2.964,2.9583,2.9585,2.9706,2.9709,2.9712,2.9763,0,0,0,0,0,0,2.9542,2.9549,2.957,2.957,2.9575,2.9625,2.9581,2.9578,2.9588,2.9584,2.9586,2.9584,2.9572,2.9609,2.9614,2.9642,2.9586,2.9703,2.9707,2.9711,2.9758,2.9767,2.9775,0,0,0,0,0,2.954,2.9584,2.9571,2.9577,2.9601,2.9627,2.963,2.9615,2.9591,2.9611,2.9606,2.9584,2.9636,2.9613,2.9619,2.9648,2.9701,2.9706,2.971,2.9755,2.9765,2.9774,0,0,0,0,0,0,2.9587,2.9584,2.9569,2.9615,2.9622,2.962,2.9645,2.9627,2.964,2.9635,2.9615,2.9616,2.9655,2.9655,2.9629,2.9698,2.9664,2.967,2.9696,2.9706,2.9714,2.9713,2.9588,0,0,0,0,0,2.9603,2.9625,2.9621,2.9661,2.9665,2.9655,2.9665,2.9653,2.9659,2.9661,2.9659,2.9665,2.9683,2.9695,2.9711,2.9759,2.9757,2.9781,2.9789,2.9796,2.9801,2.9824,2.9834,2.9728,2.9728,2.9728,0,0,2.9636,2.9637,2.9652,2.9671,2.9674,2.9696,2.9657,2.9683,2.9698,2.9665,2.9698,2.9697,2.9702,2.9744,2.9762,2.9745,2.983,2.9802,2.9807,2.9808,2.983,2.984,2.9849,2.9731,2.973,2.973,0,0,2.9707,2.9711,2.9744,2.9748,2.9754,2.9746,2.9754,2.9754,2.9752,2.9785,2.976,2.9778,2.9809,2.9814,2.982,2.9891,2.987,2.9897,2.9938,2.9961,2.997,2.9977,3.0,3.0009,2.9902,2.9902,2.9902,0,2.9747,2.978,2.9763,2.979,2.9798,2.9769,2.9801,2.9806,2.9817,2.9823,2.9804,2.9841,2.9843,2.9884,2.9901,2.9908,2.9915,2.9896,2.997,2.9977,2.9983,3.0006,3.0015,2.9905,2.9905,2.9904,2.9904,0,2.9828,2.9851,2.9877,2.9887,2.9898,2.9928,2.9915,2.9928,2.9915,2.9909,2.9942,2.9943,2.9957,2.9967,2.9954,3.0005,2.9994,2.9973,2.9939,2.9997,3.0017,3.0026,2.9909,2.9908,2.9907,2.9907,0,0,2.9929,2.9929,2.9939,2.9942,2.9946,2.9963,2.999,3.0005,3.0015,3.0024,3.0045,3.0072,3.0051,3.0059,3.0046,3.0067,3.012,3.0042,3.0042,3.0055,3.0175,3.019,3.02,3.0107,3.0109,3.011,3.0174,0,2.9997,3.0044,3.0029,3.0077,3.0097,3.0068,3.0092,3.0097,3.0092,3.0107,3.0101,3.012,3.0093,3.0096,3.0115,3.011,3.0144,3.0105,3.0126,3.0127,3.0124,3.0211,3.0227,3.0287,3.0182,3.0183,3.0184,0,3.0083,3.0094,3.0143,3.0141,3.0149,3.0171,3.0181,3.0197,3.0201,3.0196,3.0203,3.0186,3.0212,3.0179,3.0213,3.0187,3.0195,3.0193,3.0195,3.0195,3.0158,3.0212,3.0306,3.0315,3.0197,3.0196,3.0195,0,3.015,3.0177,3.0209,3.0213,3.0212,3.0228,3.0228,3.023,3.0239,3.0248,3.0254,3.0266,3.0273,3.0283,3.0269,3.0247,3.0305,3.0271,3.03,3.0301,3.0313,3.0312,3.0408,3.0321,3.0321,3.0321,3.032,0,3.0226,3.0257,3.0238,3.0258,3.0291,3.0273,3.0306,3.0304,3.0305,3.0323,3.03,3.0318,3.0299,3.0315,3.0304,3.0333,3.0337,3.0333,3.0329,3.0334,3.0334,3.0337,3.0332,3.0323,3.0322,3.0322,3.0321,0,3.0306,3.0295,3.0328,3.0324,3.0324,3.0348,3.0345,3.0362,3.0355,3.0378,3.0382,3.0372,3.0388,3.0376,3.0393,3.0386,3.0423,3.0415,3.0422,3.0419,3.0448,3.0445,3.0549,3.056,3.0467,3.0468,3.0469,0,3.0355,3.0378,3.0376,3.0386,3.0388,3.0405,3.0413,3.0397,3.0407,3.0412,3.0428,3.0443,3.0454,3.0482,3.0475,3.0487,3.0478,3.0513,3.0479,3.0483,3.0476,3.0474,3.0476,3.052,3.0521,3.0522,3.0522,0,3.0443,3.0435,3.0449,3.046,3.047,3.0478,3.0484,3.0494,3.0477,3.0489,3.0505,3.0514,3.053,3.0544,3.0554,3.0554,3.0535,3.0533,3.054,3.0544,3.0547,3.0544,3.0439,3.0531,3.053,3.0529,3.0529,3.0528,3.0507,3.0525,3.0526,3.0541,3.0544,3.0549,3.0565,3.056,3.0573,3.0585,3.0574,3.0594,3.0595,3.0606,3.0608,3.0623,3.0608,3.0619,3.0621,3.0624,3.0627,3.0546,3.0625,3.0625,3.0624,3.0624,3.0624,0,3.0592,3.059,3.0604,3.0613,3.0624,3.0606,3.0611,3.0622,3.0639,3.0642,3.0653,3.0671,3.0684,3.0678,3.069,3.0703,3.0694,3.0706,3.0704,3.0704,3.064,3.0632,3.0713,3.0713,3.0713,3.0713,3.0713,3.0713,3.0637,3.0665,3.0658,3.0688,3.0686,3.0705,3.0709,3.0714,3.0716,3.0737,3.0748,3.0744,3.0743,3.0754,3.0765,3.0763,3.0768,3.0783,3.0777,3.0718,3.0709,3.07,3.0692,3.0784,3.0784,3.0839,3.084,3.084]}]]